Miscellaneous Local Product
Issued by NWS Hastings, NE

Home | Current Version | Previous Version | Text Only | Print | Product List | Glossary Off
Versions: 1 2 3 4 5 6 7 8 9 10 11 12 13 14 15 16 17 18 19 20 21 22 23 24 25 26 27 28 29 30 31 32 33 34 35 36 37 38 39 40 41 42 43 44 45 46 47 48 49 50

175
AXUS43 KGID 031702
MISGRI

GID CWA HOURLY WEATHER ROUNDUP
NATIONAL WEATHER SERVICE HASTINGS NE
1100 AM CST SAT DEC 03 2016

NOTE: "FAIR" INDICATES FEW OR NO CLOUDS BELOW 12,000 FEET WITH NO
SIGNIFICANT WEATHER AND/OR OBSTRUCTIONS TO VISIBILITY.

...SOUTH CENTRAL NEBRASKA...

CITY           SKY/WX    TMP DP  RH WIND       PRES   REMARKS
GRAND ISLAND   LGT SNOW  32  32 100 S8        30.21F FOG     WCI  25
HASTINGS       LGT SNOW  33  32  96 S8        30.22F FOG     WCI  26
KEARNEY        CLOUDY    34  28  80 S8        30.19F WCI  27
ORD            CLOUDY    35  26  69 S12       30.16S WCI  27
YORK           LGT SNOW  32  32 100 S9        30.24F WCI  24
AURORA         LGT SNOW  32  32 100 S5        30.23F VSB 1   WCI  27
LEXINGTON      CLOUDY    34  27  76 S12       30.16R WCI  25
HOLDREGE       LGT SNOW  33  31  95 S9        30.18F WCI  25
HEBRON         LGT SNOW  32  32  99 CALM      30.26F VSB 3/4

...NEBRASKA PANHANDLE...

CITY           SKY/WX    TMP DP  RH WIND       PRES   REMARKS
CHADRON        SUNNY     37  13  37 W21       29.94F WCI  26
ALLIANCE       SUNNY     37  11  34 SW21      29.97F WCI  26
SCOTTSBLUFF    SUNNY     39  10  30 W15G24    29.99F WCI  31
SIDNEY         SUNNY     33  22  63 SW12      30.02S WCI  24

...WESTERN AND NORTH CENTRAL NEBRASKA...

CITY           SKY/WX    TMP DP  RH WIND       PRES   REMARKS
VALENTINE      SUNNY     41  24  51 SW21G30   30.00F
AINSWORTH      MOSUNNY   39  28  65 S16G22    30.04F WCI  30
ONEILL         CLOUDY    36  32  85 S13       30.14S WCI  27
BROKEN BOW     CLOUDY    35  27  72 S13       30.12F WCI  26
IMPERIAL       SUNNY     38  21  50 S12       30.08F WCI  30
NORTH PLATTE   CLOUDY    39  24  55 S10       30.10F WCI  32
MCCOOK         CLOUDY    37  25  61 S9        30.15S WCI  30

...EASTERN NEBRASKA...

CITY           SKY/WX    TMP DP  RH WIND       PRES   REMARKS
NORFOLK        CLOUDY    32  28  85 S12       30.21F WCI  23
SO SIOUX CITY  CLOUDY    34  30  85 S12       30.26R WCI  25
TEKAMAH        CLOUDY    32  29  88 S9        30.29R WCI  24
COLUMBUS       CLOUDY    34  28  80 S6        30.25S WCI  29
ALBION         CLOUDY    33  29  86 S9        30.20S WCI  25
OMAHA EPPLEY   CLOUDY    32  27  81 S12       30.31R WCI  23
OFFUTT AFB     CLOUDY    33  33 100 SE7       30.30S WCI  27
MILLARD        CLOUDY    33  30  88 SE5       30.30S WCI  28
LINCOLN        LGT SNOW  32  31  96 S7        30.30S VSB 3/4 WCI  26
NEBRASKA CITY  CLOUDY    32  29  89 S5        30.31R WCI  28
BEATRICE       LGT SNOW  33  32  97 CALM      30.28F VSB 3/4
FALLS CITY       N/A    N/A N/A N/A MISG      30.30R

...NORTHERN KANSAS...

CITY           SKY/WX    TMP DP  RH WIND       PRES   REMARKS
GOODLAND       CLOUDY    35  26  69 S12       30.09F WCI  27
HILL CITY      CLOUDY    32  31  96 SE6       30.19F FOG     WCI  26
NORTON         FLURRIES  34  27  75 SE6       30.17F WCI  29
PHILLIPSBURG   LGT SNOW  32  32 100 E3        30.21F
SMITH CENTER   LGT SNOW  30  30 100 CALM      30.23F VSB 1
BELOIT         CLOUDY    32  30  93 CALM      30.24F
HAYS           LGT SNOW  33  31  92 NE6       30.20F FOG     WCI  28
RUSSELL        LGT SNOW  32  31  96 N6        30.20F FOG     WCI  26
CONCORDIA      LGT SNOW  34  31  88 E3        30.25F FOG
SALINA         CLOUDY    39  30  70 E6        30.23S WCI  35
TOPEKA         CLOUDY    42  31  64 E10       30.26F



USA.gov is the U.S. government's official web portal to all federal, state and local government web resources and services.